Northeast Philadelphia, PA

5:47 PM EST on November 15, 2019 (GMT -0500)
Northeast Philadelphia

Weather History for KPNE - September, 2019

Change the Weather History Date:

Tuesday, September 17, 2019

  Actual Average Record
Temperature  
Mean Temperature 70 °F -  
Max Temperature 81 °F 75 °F 87 °F (2005)
Min Temperature 61 °F 56 °F 46 °F (2007)
Cooling Degree Days 6    
Growing Degree Days 20 (Base 50)    
Moisture  
Dew Point 52 °F    
Average Humidity 52    
Maximum Humidity 78    
Minimum Humidity 30    
Precipitation  
Precipitation 0.00 in - - ()
Sea Level Pressure  
Sea Level Pressure 30.12 in    
Wind  
Wind Speed 7 mph ()    
Max Wind Speed 12 mph    
Max Gust Speed -    
Visibility 10.0 miles    
Events      
Averages and records for this station are not official NWS values.
T = Trace of Precipitation, MM = Missing Value Source: Averaged Metar Reports

Daily Weather History Graph

Daily Weather History Graph

Search for Another Location

Airport or City:

Astronomy

Sep. 17, 2019 Rise Set
Actual Time 6:42 AM EDT 7:05 PM EDT
Civil Twilight 6:15 AM EDT 7:32 PM EDT
Nautical Twilight 5:43 AM EDT 8:04 PM EDT
Astronomical Twilight 5:10 AM EDT 8:37 PM EDT
Moon 9:07 PM EDT (9/17) 9:44 AM EDT (9/17)
Length of Visible Light 13h 17m
Length of Day
12h 23m
Waning Gibbous, 89% of the Moon is Illuminated
Sep 17
Waning Gibbous
Sep 21
Last Quarter
Sep 28
New
Oct 5
First Quarter
Oct 13
Full

Hourly Weather History & Observations

Time (EDT) Temp. Dew Point Humidity Pressure Visibility Wind Dir Wind Speed Gust Speed Precip Events Conditions
1:54 AM 70.0 °F 62.1 °F 76% 30.06 in 10.0 mi NNE 5.8 mph - N/A   Mostly Cloudy
2:54 AM 71.1 °F 63.0 °F 75% 30.07 in 10.0 mi ENE 3.5 mph - N/A   Overcast
3:54 AM 71.1 °F 64.0 °F 78% 30.06 in 10.0 mi NE 6.9 mph - N/A   Overcast
4:54 AM 71.1 °F 63.0 °F 75% 30.08 in 10.0 mi ENE 8.1 mph - N/A   Overcast
5:08 AM 71.1 °F 59.0 °F 66% 30.08 in 10.0 mi ENE 10.4 mph - N/A   Overcast
5:54 AM 70.0 °F 53.1 °F 55% 30.09 in 10.0 mi ENE 10.4 mph - N/A   Overcast
6:54 AM 66.0 °F 54.0 °F 65% 30.12 in 10.0 mi NNE 10.4 mph - N/A   Mostly Cloudy
7:54 AM 66.9 °F 54.0 °F 63% 30.14 in 10.0 mi NE 10.4 mph - N/A   Scattered Clouds
8:54 AM 69.1 °F 53.1 °F 57% 30.16 in 10.0 mi NE 11.5 mph - N/A   Clear
9:54 AM 72.0 °F 48.9 °F 44% 30.17 in 10.0 mi ENE 11.5 mph - N/A   Clear
10:54 AM 73.9 °F 50.0 °F 43% 30.17 in 10.0 mi NE 11.5 mph - N/A   Clear
11:54 AM 75.9 °F 48.9 °F 38% 30.16 in 10.0 mi NE 10.4 mph - N/A   Clear
12:54 PM 77.0 °F 48.9 °F 37% 30.16 in 10.0 mi NE 10.4 mph - N/A   Clear
1:54 PM 78.1 °F 46.9 °F 33% 30.13 in 10.0 mi North - - N/A   Clear
2:54 PM 80.1 °F 46.9 °F 31% 30.11 in 10.0 mi North 10.4 mph - N/A   Clear
3:54 PM 80.1 °F 46.0 °F 30% 30.10 in 10.0 mi Variable 5.8 mph - N/A   Clear
4:54 PM 80.1 °F 46.9 °F 31% 30.09 in 10.0 mi NNE 4.6 mph - N/A   Clear
5:54 PM 78.1 °F 46.9 °F 33% 30.09 in 10.0 mi North 10.4 mph - N/A   Clear
6:54 PM 75.0 °F 44.1 °F 33% 30.11 in 10.0 mi NNE 6.9 mph - N/A   Clear
7:54 PM 71.1 °F 46.0 °F 41% 30.12 in 10.0 mi NE 4.6 mph - N/A   Clear
8:54 PM 68.0 °F 46.9 °F 47% 30.14 in 10.0 mi SE 3.5 mph - N/A   Clear
9:54 PM 64.0 °F 50.0 °F 60% 30.15 in 10.0 mi East 3.5 mph - N/A   Clear
10:54 PM 61.0 °F 50.0 °F 67% 30.15 in 10.0 mi Calm Calm - N/A   Clear
11:54 PM 63.0 °F 51.1 °F 65% 30.16 in 10.0 mi Calm Calm - N/A   Clear